| time (UTC) | temp F | wind direction | speed knots | gust knots | rain 1hr in | rain 24hr in | rain mn in | humidity % | barometer mb |
| 20260510140015 | 75 | 305 | 1.7 | 3.5 | 0.00 | 0.00 | 0.00 | 55 | 1016.2 |
| 20260510135015 | 73 | 4 | 0.9 | 2.6 | 0.00 | 0.00 | 0.00 | 58 | 1016.1 |
| 20260510134016 | 72 | 77 | 1.7 | 5.2 | 0.00 | 0.00 | 0.00 | 58 | 1016.2 |
| 20260510133035 | 71 | 84 | 0.9 | 3.5 | 0.00 | 0.00 | 0.00 | 61 | 1016.2 |
| 20260510132016 | 68 | 157 | 0.9 | 3.5 | 0.00 | 0.00 | 0.00 | 63 | 1016.1 |
| 20260510131036 | 67 | 73 | 2.6 | 5.2 | 0.00 | 0.00 | 0.00 | 66 | 1016.0 |
| 20260510130016 | 66 | 100 | 1.7 | 3.5 | 0.00 | 0.00 | 0.00 | 67 | 1015.9 |
| 20260510125016 | 65 | 143 | 0.9 | 3.5 | 0.00 | 0.00 | 0.00 | 70 | 1015.8 |
| 20260510124017 | 64 | 158 | 0.9 | 2.6 | 0.00 | 0.00 | 0.00 | 75 | 1015.7 |
| 20260510123016 | 62 | 153 | 0.9 | 2.6 | 0.00 | 0.00 | 0.00 | 77 | 1015.6 |
| 20260510122019 | 58 | 204 | 0.0 | 2.6 | 0.00 | 0.00 | 0.00 | 81 | 1015.5 |
| 20260510121017 | 56 | 295 | 0.9 | 2.6 | 0.00 | 0.00 | 0.00 | 86 | 1015.4 |
| 20260510120017 | 53 | 304 | 1.7 | 2.6 | 0.00 | 0.00 | 0.00 | 91 | 1015.1 |
| 20260510114018 | 49 | 296 | 1.7 | 2.6 | 0.00 | 0.00 | 0.00 | 98 | 1015.0 |
| 20260510113018 | 47 | 302 | 0.9 | 1.7 | 0.00 | 0.00 | 0.00 | 99 | 1014.9 |
| 20260510112018 | 47 | 312 | 1.7 | 2.6 | 0.00 | 0.00 | 0.00 | 100 | 1014.8 |
| 20260510111018 | 47 | 310 | 1.7 | 2.6 | 0.00 | 0.00 | 0.00 | 99 | 1014.6 |
| 20260510110018 | 46 | 280 | 0.0 | 1.7 | 0.00 | 0.00 | 0.00 | 99 | 1014.6 |
| 20260510105018 | 45 | 282 | 0.9 | 1.7 | 0.00 | 0.00 | 0.00 | 99 | 1014.6 |
| 20260510104016 | 44 | 299 | 0.9 | 1.7 | 0.00 | 0.00 | 0.00 | 99 | 1014.5 |
| 20260510103056 | 45 | 306 | 1.7 | 2.6 | 0.00 | 0.00 | 0.00 | 99 | 1014.5 |
| 20260510102016 | 45 | 295 | 0.9 | 1.7 | 0.00 | 0.00 | 0.00 | 99 | 1014.4 |
| 20260510101017 | 45 | 269 | 0.9 | 0.9 | 0.00 | 0.00 | 0.00 | 99 | 1014.2 |
| 20260510100036 | 45 | 0.0 | 0.0 | 0.00 | 0.00 | 0.00 | 100 | 1014.2 | |
| 20260510095016 | 45 | 178 | 0.0 | 0.9 | 0.00 | 0.00 | 0.00 | 100 | 1014.1 |
| 20260510094017 | 46 | 296 | 0.9 | 1.7 | 0.00 | 0.00 | 0.00 | 100 | 1013.9 |
| 20260510093016 | 46 | 288 | 0.0 | 0.9 | 0.00 | 0.00 | 0.00 | 100 | 1013.9 |
| 20260510092017 | 46 | 302 | 0.9 | 1.7 | 0.00 | 0.00 | 0.00 | 100 | 1013.9 |
| 20260510091017 | 46 | 161 | 0.9 | 1.7 | 0.00 | 0.00 | 0.00 | 99 | 1013.8 |
| 20260510090137 | 46 | 304 | 0.9 | 1.7 | 0.00 | 0.00 | 0.00 | 99 | 1013.6 |
| 20260510085017 | 47 | 301 | 0.0 | 1.7 | 0.00 | 0.00 | 0.00 | 99 | 1013.4 |
| 20260510084021 | 47 | 159 | 0.9 | 2.6 | 0.00 | 0.00 | 0.00 | 99 | 1013.3 |
| 20260510083037 | 47 | 305 | 0.9 | 2.6 | 0.00 | 0.00 | 0.00 | 99 | 1013.4 |
| 20260510082038 | 47 | 229 | 0.0 | 0.9 | 0.00 | 0.00 | 0.00 | 99 | 1013.4 |
| 20260510081058 | 47 | 257 | 0.9 | 2.6 | 0.00 | 0.00 | 0.00 | 99 | 1013.2 |
| 20260510080015 | 47 | 58 | 0.0 | 3.5 | 0.00 | 0.00 | 0.00 | 98 | 1013.1 |
| 20260510075038 | 48 | 307 | 0.9 | 3.5 | 0.00 | 0.00 | 0.00 | 98 | 1013.0 |
| 20260510074016 | 48 | 310 | 1.7 | 3.5 | 0.00 | 0.00 | 0.00 | 97 | 1013.0 |
| 20260510073016 | 49 | 309 | 0.9 | 2.6 | 0.00 | 0.00 | 0.00 | 97 | 1013.0 |
| 20260510072015 | 49 | 278 | 0.9 | 1.7 | 0.00 | 0.00 | 0.00 | 97 | 1013.0 |
| 20260510071016 | 49 | 252 | 0.0 | 0.9 | 0.00 | 0.00 | 0.00 | 97 | 1013.0 |
| 20260510070015 | 49 | 144 | 0.0 | 0.9 | 0.00 | 0.00 | 0.00 | 96 | 1013.0 |
| 20260510065019 | 50 | 301 | 0.9 | 1.7 | 0.00 | 0.00 | 0.00 | 95 | 1013.0 |
| 20260510064016 | 50 | 296 | 0.9 | 1.7 | 0.00 | 0.00 | 0.00 | 94 | 1013.0 |
| 20260510063016 | 51 | 300 | 1.7 | 2.6 | 0.00 | 0.00 | 0.00 | 93 | 1013.0 |
| 20260510062017 | 51 | 288 | 0.9 | 1.7 | 0.00 | 0.00 | 0.00 | 94 | 1013.1 |
| 20260510061017 | 51 | 153 | 0.0 | 1.7 | 0.00 | 0.00 | 0.00 | 94 | 1013.2 |
| 20260510060037 | 51 | 178 | 0.0 | 1.7 | 0.00 | 0.00 | 0.00 | 92 | 1013.2 |
| 20260510055016 | 52 | 249 | 0.0 | 0.9 | 0.00 | 0.00 | 0.00 | 92 | 1013.1 |
| 20260510054037 | 51 | 301 | 0.9 | 1.7 | 0.00 | 0.00 | 0.00 | 93 | 1013.1 |
| 20260510053037 | 51 | 292 | 1.7 | 1.7 | 0.00 | 0.00 | 0.00 | 95 | 1013.0 |
| 20260510052017 | 51 | 301 | 1.7 | 2.6 | 0.00 | 0.00 | 0.00 | 94 | 1013.1 |
| 20260510051017 | 51 | 295 | 1.7 | 2.6 | 0.00 | 0.00 | 0.00 | 94 | 1013.1 |
| 20260510050018 | 51 | 300 | 1.7 | 1.7 | 0.00 | 0.00 | 0.00 | 94 | 1013.0 |
| 20260510045017 | 52 | 278 | 0.0 | 0.9 | 0.00 | 0.00 | 0.00 | 93 | 1013.2 |
| 20260510044018 | 52 | 295 | 1.7 | 2.6 | 0.00 | 0.00 | 0.00 | 91 | 1013.2 |
| 20260510043016 | 52 | 291 | 0.9 | 1.7 | 0.00 | 0.00 | 0.00 | 90 | 1013.1 |
| 20260510042016 | 53 | 295 | 0.9 | 1.7 | 0.00 | 0.00 | 0.00 | 89 | 1013.1 |
| 20260510041016 | 53 | 300 | 0.0 | 1.7 | 0.00 | 0.00 | 0.00 | 88 | 1013.1 |
| 20260510040015 | 53 | 276 | 0.0 | 1.7 | 0.00 | 0.00 | 0.00 | 88 | 1013.1 |
| 20260510035017 | 54 | 291 | 0.9 | 0.9 | 0.00 | 0.00 | 0.00 | 87 | 1013.1 |
| 20260510034016 | 54 | 307 | 0.9 | 2.6 | 0.00 | 0.00 | 0.00 | 85 | 1013.0 |
| 20260510033015 | 55 | 311 | 0.9 | 1.7 | 0.00 | 0.00 | 0.00 | 82 | 1012.9 |
| 20260510032016 | 55 | 126 | 0.9 | 1.7 | 0.00 | 0.00 | 0.00 | 82 | 1012.8 |
| 20260510031016 | 56 | 196 | 0.0 | 0.9 | 0.00 | 0.00 | 0.00 | 80 | 1012.8 |
| 20260510030016 | 56 | 274 | 0.9 | 0.9 | 0.00 | 0.00 | 0.00 | 79 | 1012.7 |
| 20260510025016 | 57 | 209 | 0.0 | 0.0 | 0.00 | 0.00 | 0.00 | 79 | 1012.7 |
| 20260510024017 | 57 | 213 | 0.0 | 0.9 | 0.00 | 0.00 | 0.00 | 77 | 1012.6 |
| 20260510023016 | 59 | 274 | 0.0 | 0.9 | 0.00 | 0.00 | 0.00 | 75 | 1012.5 |
| 20260510022017 | 60 | 286 | 0.9 | 1.7 | 0.00 | 0.00 | 0.00 | 71 | 1012.4 |
| 20260510021017 | 60 | 266 | 0.0 | 0.9 | 0.00 | 0.00 | 0.00 | 69 | 1012.3 |
| 20260510020017 | 60 | 112 | 0.0 | 1.7 | 0.00 | 0.00 | 0.00 | 70 | 1012.1 |
| 20260510015017 | 61 | 102 | 1.7 | 2.6 | 0.00 | 0.00 | 0.00 | 72 | 1011.8 |
| 20260510014038 | 61 | 123 | 1.7 | 2.6 | 0.00 | 0.00 | 0.00 | 69 | 1011.5 |
| 20260510013017 | 61 | 165 | 0.0 | 0.9 | 0.00 | 0.00 | 0.00 | 69 | 1011.4 |
| 20260510012038 | 62 | 289 | 0.0 | 1.7 | 0.00 | 0.00 | 0.00 | 65 | 1011.2 |
| 20260510011018 | 63 | 299 | 0.9 | 1.7 | 0.00 | 0.00 | 0.00 | 62 | 1011.1 |
| 20260510010017 | 64 | 253 | 0.0 | 0.9 | 0.00 | 0.00 | 0.00 | 59 | 1010.8 |
| 20260510005018 | 66 | 0.0 | 0.0 | 0.00 | 0.00 | 0.00 | 57 | 1010.8 | |
| 20260510004018 | 67 | 0.0 | 0.0 | 0.00 | 0.00 | 0.00 | 54 | 1010.8 | |
| 20260510003018 | 69 | 279 | 0.0 | 1.7 | 0.00 | 0.00 | 0.00 | 52 | 1010.7 |
| 20260510002015 | 70 | 290 | 0.9 | 1.7 | 0.00 | 0.00 | 0.00 | 52 | 1010.7 |
| 20260510001015 | 72 | 91 | 0.0 | 2.6 | 0.00 | 0.00 | 0.00 | 50 | 1010.5 |
| 20260510000016 | 73 | 311 | 0.9 | 2.6 | 0.00 | 0.00 | 0.00 | 49 | 1010.5 |
| 20260509235016 | 73 | 250 | 0.0 | 1.7 | 0.00 | 0.00 | 0.00 | 47 | 1010.3 |
| 20260509234016 | 74 | 301 | 1.7 | 3.5 | 0.00 | 0.00 | 0.00 | 47 | 1010.0 |
| 20260509233056 | 75 | 301 | 1.7 | 3.5 | 0.00 | 0.00 | 0.00 | 45 | 1010.0 |
| 20260509232037 | 77 | 298 | 2.6 | 6.1 | 0.00 | 0.00 | 0.00 | 43 | 1009.7 |
| 20260509231017 | 77 | 281 | 2.6 | 4.3 | 0.00 | 0.00 | 0.00 | 42 | 1009.6 |
| 20260509230017 | 77 | 304 | 2.6 | 5.2 | 0.00 | 0.00 | 0.00 | 42 | 1009.4 |
| 20260509225037 | 78 | 301 | 3.5 | 6.1 | 0.00 | 0.00 | 0.00 | 41 | 1009.4 |
| 20260509224017 | 79 | 287 | 2.6 | 5.2 | 0.00 | 0.00 | 0.00 | 41 | 1009.6 |
| 20260509223017 | 78 | 286 | 2.6 | 6.1 | 0.00 | 0.00 | 0.00 | 41 | 1009.6 |
| 20260509222017 | 79 | 305 | 3.5 | 7.0 | 0.00 | 0.00 | 0.00 | 40 | 1009.5 |
| 20260509221017 | 80 | 274 | 2.6 | 7.0 | 0.00 | 0.00 | 0.00 | 40 | 1009.5 |
| 20260509220017 | 80 | 277 | 2.6 | 7.8 | 0.00 | 0.00 | 0.00 | 40 | 1009.3 |
| 20260509215018 | 80 | 262 | 1.7 | 4.3 | 0.00 | 0.00 | 0.00 | 44 | 1009.3 |
| 20260509214018 | 81 | 295 | 2.6 | 5.2 | 0.00 | 0.00 | 0.00 | 44 | 1009.3 |
| 20260509213058 | 80 | 260 | 0.9 | 3.5 | 0.00 | 0.00 | 0.00 | 46 | 1009.2 |
| 20260509212021 | 79 | 248 | 0.9 | 3.5 | 0.00 | 0.00 | 0.00 | 47 | 1009.3 |
| 20260509211015 | 79 | 278 | 1.7 | 5.2 | 0.00 | 0.00 | 0.00 | 47 | 1009.2 |
| 20260509210035 | 80 | 261 | 2.6 | 5.2 | 0.00 | 0.00 | 0.00 | 47 | 1009.2 |
| 20260509205016 | 80 | 251 | 1.7 | 4.3 | 0.00 | 0.00 | 0.00 | 46 | 1009.2 |
| 20260509204016 | 80 | 260 | 1.7 | 5.2 | 0.00 | 0.00 | 0.00 | 45 | 1009.1 |
| 20260509203016 | 81 | 234 | 1.7 | 5.2 | 0.00 | 0.00 | 0.00 | 46 | 1009.2 |
| 20260509202016 | 80 | 178 | 1.7 | 4.3 | 0.00 | 0.00 | 0.00 | 46 | 1009.1 |
| 20260509201016 | 77 | 269 | 1.7 | 6.1 | 0.00 | 0.00 | 0.00 | 48 | 1009.0 |
| 20260509200016 | 77 | 275 | 0.9 | 2.6 | 0.00 | 0.00 | 0.00 | 48 | 1009.3 |
| 20260509195017 | 77 | 285 | 2.6 | 5.2 | 0.00 | 0.00 | 0.00 | 47 | 1009.2 |
| 20260509194017 | 77 | 214 | 1.7 | 3.5 | 0.00 | 0.00 | 0.00 | 50 | 1009.2 |
| 20260509193017 | 79 | 204 | 2.6 | 5.2 | 0.00 | 0.00 | 0.00 | 47 | 1009.2 |
| 20260509192017 | 78 | 209 | 2.6 | 6.1 | 0.00 | 0.00 | 0.00 | 50 | 1009.2 |
| 20260509191017 | 79 | 202 | 2.6 | 5.2 | 0.00 | 0.00 | 0.00 | 49 | 1009.4 |
| 20260509190017 | 79 | 196 | 2.6 | 6.1 | 0.00 | 0.00 | 0.00 | 48 | 1009.5 |
| 20260509185018 | 78 | 232 | 2.6 | 6.1 | 0.00 | 0.00 | 0.00 | 50 | 1009.6 |
| 20260509184018 | 78 | 222 | 2.6 | 6.1 | 0.00 | 0.00 | 0.00 | 50 | 1009.6 |
| 20260509183037 | 77 | 196 | 2.6 | 6.1 | 0.00 | 0.00 | 0.00 | 51 | 1009.8 |
| 20260509182038 | 76 | 191 | 2.6 | 5.2 | 0.00 | 0.00 | 0.00 | 54 | 1009.8 |
| 20260509181038 | 75 | 238 | 1.7 | 3.5 | 0.00 | 0.00 | 0.00 | 53 | 1010.2 |
| 20260509180018 | 76 | 218 | 2.6 | 7.0 | 0.00 | 0.00 | 0.00 | 54 | 1010.2 |
| 20260509175038 | 74 | 206 | 2.6 | 4.3 | 0.00 | 0.00 | 0.00 | 55 | 1010.3 |
| 20260509174015 | 74 | 223 | 1.7 | 4.3 | 0.00 | 0.00 | 0.00 | 56 | 1010.3 |
| 20260509173016 | 73 | 211 | 1.7 | 5.2 | 0.00 | 0.00 | 0.00 | 57 | 1010.4 |
| 20260509172016 | 75 | 201 | 2.6 | 4.3 | 0.00 | 0.00 | 0.00 | 53 | 1010.6 |
| 20260509171016 | 75 | 212 | 1.7 | 4.3 | 0.00 | 0.00 | 0.00 | 54 | 1010.7 |
| 20260509170016 | 76 | 212 | 2.6 | 6.1 | 0.00 | 0.00 | 0.00 | 54 | 1010.8 |
| 20260509165016 | 74 | 204 | 2.6 | 6.1 | 0.00 | 0.00 | 0.00 | 55 | 1010.8 |
| 20260509164016 | 73 | 207 | 2.6 | 4.3 | 0.00 | 0.00 | 0.00 | 58 | 1010.9 |
| 20260509163017 | 74 | 210 | 2.6 | 5.2 | 0.00 | 0.00 | 0.00 | 56 | 1011.1 |
| 20260509162017 | 73 | 185 | 2.6 | 4.3 | 0.00 | 0.00 | 0.00 | 58 | 1011.0 |
| 20260509161017 | 73 | 213 | 2.6 | 4.3 | 0.00 | 0.00 | 0.00 | 59 | 1011.0 |
| 20260509160037 | 71 | 209 | 1.7 | 4.3 | 0.00 | 0.00 | 0.00 | 63 | 1011.0 |
| 20260509155017 | 72 | 180 | 2.6 | 5.2 | 0.00 | 0.00 | 0.00 | 60 | 1011.2 |
| 20260509154017 | 71 | 244 | 1.7 | 4.3 | 0.00 | 0.00 | 0.00 | 61 | 1011.4 |
| 20260509153017 | 71 | 211 | 2.6 | 6.1 | 0.00 | 0.00 | 0.00 | 62 | 1011.6 |
| 20260509152017 | 72 | 212 | 2.6 | 5.2 | 0.00 | 0.00 | 0.00 | 62 | 1011.4 |
| 20260509151038 | 72 | 229 | 1.7 | 4.3 | 0.00 | 0.00 | 0.00 | 60 | 1011.4 |
| 20260509150058 | 71 | 224 | 2.6 | 4.3 | 0.00 | 0.00 | 0.00 | 61 | 1011.3 |
| 20260509145018 | 71 | 215 | 2.6 | 6.1 | 0.00 | 0.00 | 0.00 | 61 | 1011.3 |
| 20260509144058 | 70 | 235 | 1.7 | 5.2 | 0.00 | 0.00 | 0.00 | 62 | 1011.6 |
| 20260509143018 | 68 | 234 | 1.7 | 5.2 | 0.00 | 0.00 | 0.00 | 65 | 1011.9 |
| 20260509142018 | 67 | 253 | 1.7 | 4.3 | 0.00 | 0.00 | 0.00 | 67 | 1011.9 |
| 20260509141021 | 65 | 232 | 0.9 | 3.5 | 0.00 | 0.00 | 0.00 | 70 | 1011.8 |